Location: La Comballaz
(46.3780°N, 7.0817°E)
Time: 17:57:21
(UTC+00:00)

MetOp-B - Pass Details

Date: 09 April 2020
Orbit: 819 x 822 km, 98.7° (Epoch: 02 June)

Event Time Altitude Azimuth Distance (km) Brightness Sun altitude
Exits shadow 20:32:20 39° 177° (S) 1,220 4.7 -22.4°
Maximum altitude 20:34:24 77° 256° (WSW) 847 4.2 -22.7°
Drops below altitude 10° 20:39:48 10° 343° (NNW) 2,430 7.4 -23.4°
Sets 20:42:10 0° 345° (NNW) 3,367 8.2 -23.7°
